Location: Hylvaty SDH
(49.9612°N, 16.4057°E)
Time: 20:19:04
(UTC+01:00)

Vanguard 1 Rocket - Pass Details

Date: 08 October 2020
Orbit: 656 x 4221 km, 34.3° (Epoch: 30 October)

Event Time Altitude Azimuth Distance (km) Brightness Sun altitude
Rises 20:51:45 0° 266° (W) 5,353 12.3 -25.3°
Reaches altitude 10° 20:55:06 10° 257° (WSW) 4,769 11.7 -25.8°
Maximum altitude 21:07:42 35° 199° (SSW) 4,353 10.7 -27.7°
Enters shadow 21:19:32 22° 157° (SSE) 5,960 11.1 -29.4°
Drops below altitude 10° 21:27:18 10° 144° (SE) 7,285 - -30.4°
Sets 21:34:14 0° 138° (SE) 8,450 - -31.4°
